GW6129 Weather Reports


time (UTC)temp
C
wind
direction
speed
KPH
gust
KPH
rain 1hr
cm
rain 24hr
cm
rain mn
cm
humidity
%
barometer
mb
20260505181008 25 182 17.7 29.0 0.00 0.00 0.00 82 1008.5
20260505180508 25 221 16.1 25.7 0.00 0.00 0.00 81 1008.5
20260505180020 25 200 12.9 24.1 0.00 0.00 0.00 82 1008.5
20260505175508 24 191 14.5 24.1 0.00 0.00 0.00 82 1008.6
20260505175011 24 190 12.9 24.1 0.00 0.00 0.00 84 1008.6
20260505174535 24 180 9.7 22.5 0.00 0.00 0.00 84 1008.7
20260505174008 24 221 11.3 22.5 0.00 0.00 0.00 84 1008.8
20260505173508 24 207 11.3 19.3 0.00 0.00 0.00 84 1008.9
20260505173028 23 224 12.9 27.4 0.00 0.00 0.00 84 1008.8
20260505172507 23 216 12.9 27.4 0.00 0.00 0.00 84 1008.8
20260505172008 23 207 14.5 27.4 0.00 0.00 0.00 84 1008.8
20260505171524 23 215 12.9 25.7 0.00 0.00 0.00 84 1008.9
20260505171011 23 217 12.9 25.7 0.00 0.00 0.00 84 1008.9
20260505170019 23 173 14.5 27.4 0.00 0.00 0.00 85 1009.0
20260505165513 23 191 16.1 25.7 0.00 0.00 0.00 85 1009.1
20260505165008 23 233 12.9 24.1 0.00 0.00 0.00 86 1009.1
20260505164512 23 209 16.1 24.1 0.00 0.00 0.00 86 1009.2
20260505164007 23 209 11.3 24.1 0.00 0.00 0.00 86 1009.1
20260505163507 23 222 16.1 20.9 0.00 0.00 0.00 86 1009.1
20260505163003 23 197 12.9 24.1 0.00 0.00 0.00 86 1009.0
20260505162504 23 194 16.1 27.4 0.00 0.00 0.00 86 1009.0
20260505162003 23 228 17.7 30.6 0.00 0.00 0.00 86 1009.0
20260505161506 23 205 17.7 30.6 0.00 0.00 0.00 86 1009.0
20260505161004 23 207 16.1 24.1 0.00 0.00 0.00 1009.0
20260505160504 23 216 14.5 24.1 0.00 0.00 0.00 86 1008.9
20260505152004 22 175 14.5 32.2 0.00 0.00 0.00 1008.9
20260505151503 22 195 17.7 32.2 0.00 0.00 0.00 86 1008.8
20260505151006 23 205 11.3 27.4 0.00 0.00 0.00 86 1008.8
20260505150506 22 211 17.7 27.4 0.00 0.00 0.00 86 1008.8
20260505140503 22 242 12.9 22.5 0.00 0.00 0.00 87 1008.2
20260505125003 22 215 16.1 27.4 0.00 0.00 0.00 87 1007.9
20260505124507 21 209 12.9 20.9 0.00 0.00 0.00 87 1007.8
20260505124007 21 173 12.9 22.5 0.00 0.00 0.00 87 1007.7
20260505123504 21 182 14.5 24.1 0.00 0.00 0.00 87 1007.7
20260505123012 21 186 14.5 25.7 0.00 0.00 0.00 87 1007.7
20260505122507 21 188 12.9 25.7 0.00 0.00 0.00 87 1007.6
20260505122008 21 155 12.9 20.9 0.00 0.00 0.00 86 1007.5
20260505121510 21 189 12.9 19.3 0.00 0.00 0.00 86 1007.5
20260505121007 21 209 11.3 22.5 0.00 0.00 0.00 86 1007.6
20260505120508 21 197 11.3 24.1 0.00 0.00 0.00 86 1007.6
20260505115505 21 200 12.9 22.5 0.00 0.00 0.00 86 1007.5
20260505115004 21 161 8.0 20.9 0.00 0.00 0.00 86 1007.4
20260505114508 21 179 12.9 20.9 0.00 0.00 0.00 86 1007.2
20260505114006 21 167 12.9 20.9 0.00 0.00 0.00 86 1007.2
20260505113506 21 200 11.3 24.1 0.00 0.00 0.00 86 1007.1
20260505113011 21 196 9.7 24.1 0.00 0.00 0.00 86 1007.3
20260505112506 21 186 9.7 19.3 0.00 0.00 0.00 86 1007.4
20260505112007 21 202 12.9 20.9 0.00 0.00 0.00 86 1007.4
20260505111516 21 195 12.9 20.9 0.00 0.00 0.00 87 1007.4
20260505111010 21 183 14.5 25.7 0.00 0.00 0.00 87 1007.4
20260505110507 21 223 9.7 25.7 0.00 0.00 0.00 87 1007.4
20260505102008 20 199 9.7 17.7 0.00 0.00 0.00 88 1007.5
20260505101517 20 190 11.3 17.7 0.00 0.00 0.00 88 1007.5
20260505101007 20 182 9.7 17.7 0.00 0.00 0.00 88 1007.6
20260505100508 20 167 9.7 17.7 0.00 0.00 0.00 88 1007.7
20260505100022 20 184 9.7 19.3 0.00 0.00 0.00 87 1007.6
20260505095507 21 189 9.7 20.9 0.00 0.00 0.00 87 1007.4
20260505095006 21 164 9.7 20.9 0.00 0.00 0.00 87 1007.4
20260505094523 21 209 11.3 20.9 0.00 0.00 0.00 87 1007.5
20260505094006 21 169 11.3 20.9 0.00 0.00 0.00 86 1007.5
20260505093507 21 198 12.9 19.3 0.00 0.00 0.00 86 1007.6
20260505093031 21 213 12.9 22.5 0.00 0.00 0.00 86 1007.7
20260505092506 21 167 12.9 22.5 0.00 0.00 0.00 86 1007.5
20260505092007 21 186 11.3 22.5 0.00 0.00 0.00 86 1007.6
20260505091507 21 184 12.9 20.9 0.00 0.00 0.00 86 1007.7
20260505091007 21 202 12.9 20.9 0.00 0.00 0.00 87 1007.7
20260505090505 21 203 11.3 25.7 0.00 0.00 0.00 87 1007.7
20260505090011 21 200 8.0 24.1 0.00 0.00 0.00 87 1007.7
20260505085511 21 176 11.3 19.3 0.00 0.00 0.00 87 1007.6
20260505085007 21 168 9.7 19.3 0.00 0.00 0.00 87 1007.7
20260505084512 21 180 9.7 19.3 0.00 0.00 0.00 87 1007.9
20260505084006 21 215 9.7 20.9 0.00 0.00 0.00 87 1008.0
20260505083510 21 186 11.3 20.9 0.00 0.00 0.00 86 1007.9
20260505083011 21 213 11.3 22.5 0.00 0.00 0.00 86 1008.0
20260505082507 21 140 11.3 22.5 0.00 0.00 0.00 87 1008.1
20260505082010 21 164 12.9 24.1 0.00 0.00 0.00 86 1008.3
20260505081510 21 168 11.3 24.1 0.00 0.00 0.00 86 1008.3
20260505081006 21 201 11.3 20.9 0.00 0.00 0.00 86 1008.3
20260505080505 21 194 11.3 25.7 0.00 0.00 0.00 86 1008.5
20260505080014 21 185 12.9 25.7 0.00 0.00 0.00 86 1008.5
20260505075507 21 179 14.5 24.1 0.00 0.00 0.00 86 1008.3
20260505075007 21 128 12.9 22.5 0.00 0.00 0.00 86 1008.3
20260505074519 21 173 12.9 22.5 0.00 0.00 0.00 86 1008.4
20260505074007 21 169 11.3 29.0 0.00 0.00 0.00 86 1008.4
20260505073003 21 202 11.3 22.5 0.00 0.00 0.00 86 1008.6
20260505072507 21 206 12.9 22.5 0.00 0.00 0.00 86 1008.7
20260505072004 21 184 9.7 22.5 0.00 0.00 0.00 86 1008.9
20260505071507 21 211 14.5 20.9 0.00 0.00 0.00 86 1008.8
20260505071004 21 175 11.3 29.0 0.00 0.00 0.00 86 1008.8
20260505070506 21 177 14.5 29.0 0.00 0.00 0.00 86 1008.9
20260505070011 21 204 12.9 27.4 0.00 0.00 0.00 86 1008.8
20260505065506 21 203 16.1 27.4 0.00 0.00 0.00 86 1008.8
20260505065003 21 187 12.9 27.4 0.00 0.00 0.00 86 1009.0
20260505064509 21 154 12.9 27.4 0.00 0.00 0.00 86 1009.1
20260505064008 21 196 12.9 27.4 0.00 0.00 0.00 86 1009.3
20260505063508 21 201 14.5 27.4 0.00 0.00 0.00 86 1009.3
20260505063008 21 192 14.5 27.4 0.00 0.00 0.00 85 1009.4
20260505062003 21 216 12.9 22.5 0.00 0.00 0.00 86 1009.5
20260505061508 21 188 14.5 30.6 0.00 0.00 0.00 85 1009.3
20260505061006 21 180 14.5 30.6 0.00 0.00 0.00 85 1009.5
20260505060506 21 188 16.1 25.7 0.00 0.00 0.00 85 1009.5
20260505060008 21 207 12.9 24.1 0.00 0.00 0.00 85 1009.5
20260505055503 21 168 12.9 24.1 0.00 0.00 0.00 85 1009.4
20260505055007 21 160 14.5 29.0 0.00 0.00 0.00 85 1009.2
20260505054515 21 185 12.9 29.0 0.00 0.00 0.00 85 1009.1
20260505053508 21 160 12.9 32.2 0.00 0.00 0.00 85 1008.9
20260505053014 21 133 16.1 32.2 0.00 0.00 0.00 85 1009.0
20260505052509 21 194 16.1 27.4 0.00 0.00 0.00 85 1009.0
20260505052009 21 175 14.5 32.2 0.00 0.00 0.00 84 1009.0
20260505051004 21 146 12.9 29.0 0.00 0.00 0.00 84 1009.2
20260505050506 21 175 17.7 27.4 0.00 0.00 0.00 84 1009.2
20260505041524 21 164 11.3 25.7 0.00 0.00 0.00 82 1009.6
20260505041004 21 197 14.5 25.7 0.00 0.00 0.00 82 1009.7
20260505040025 22 184 12.9 27.4 0.00 0.00 0.00 81 1009.5
20260505035505 22 138 12.9 27.4 0.00 0.00 0.00 81 1009.5
20260505035004 22 175 11.3 25.7 0.00 0.00 0.00 81 1009.5
20260505034515 22 224 9.7 25.7 0.00 0.00 0.00 81 1009.5
20260505034004 22 153 9.7 24.1 0.00 0.00 0.00 80 1009.5
20260505033506 22 205 12.9 24.1 0.00 0.00 0.00 80 1009.6
20260505033016 22 149 11.3 24.1 0.00 0.00 0.00 79 1009.5
20260505032508 22 196 11.3 22.5 0.00 0.00 0.00 79 1009.5
20260505032007 22 142 11.3 29.0 0.00 0.00 0.00 79 1009.3
20260505031008 22 184 12.9 25.7 0.00 0.00 0.00 79 1009.6
20260505030509 22 186 11.3 25.7 0.00 0.00 0.00 79 1009.7
20260505030008 22 178 9.7 24.1 0.00 0.00 0.00 79 1009.5
20260505025011 22 159 9.7 20.9 0.00 0.00 0.00 78 1009.2
20260505024511 22 161 9.7 17.7 0.00 0.00 0.00 78 1009.3
20260505024005 22 183 8.0 19.3 0.00 0.00 0.00 78 1009.2
20260505023504 22 166 9.7 19.3 0.00 0.00 0.00 77 1009.2
20260505023014 22 137 11.3 19.3 0.00 0.00 0.00 77 1009.2
20260505022504 22 162 8.0 19.3 0.00 0.00 0.00 77 1009.2
20260505022008 22 170 8.0 19.3 0.00 0.00 0.00 77 1009.1
20260505021519 23 201 8.0 19.3 0.00 0.00 0.00 77 1009.1
20260505021007 23 184 8.0 16.1 0.00 0.00 0.00 76 1009.1
20260505020507 23 169 8.0 16.1 0.00 0.00 0.00 76 1009.0
20260505020019 23 192 6.4 16.1 0.00 0.00 0.00 75 1009.0
20260505015512 23 140 8.0 16.1 0.00 0.00 0.00 75 1009.0
20260505015004 23 184 6.4 14.5 0.00 0.00 0.00 74 1009.0
20260505014519 23 172 8.0 16.1 0.00 0.00 0.00 74 1009.1
20260505014017 23 190 8.0 16.1 0.00 0.00 0.00 74 1009.0
20260505013504 23 167 8.0 17.7 0.00 0.00 0.00 73 1009.0
20260505012010 23 188 8.0 17.7 0.00 0.00 0.00 72 1008.9
20260505011513 24 169 8.0 20.9 0.00 0.00 0.00 71 1008.9
20260505011009 24 168 8.0 20.9 0.00 0.00 0.00 70 1008.9
20260505010508 24 169 9.7 19.3 0.00 0.00 0.00 70 1008.9
20260505010022 24 128 8.0 17.7 0.00 0.00 0.00 70 1008.9
20260505005507 25 186 11.3 20.9 0.00 0.00 0.00 69 1008.8
20260505005008 25 178 8.0 20.9 0.00 0.00 0.00 68 1008.8
20260505004525 25 224 9.7 22.5 0.00 0.00 0.00 68 1008.8
20260505003507 25 179 11.3 20.9 0.00 0.00 0.00 68 1008.7
20260505003024 25 155 8.0 20.9 0.00 0.00 0.00 67 1008.6
20260505002509 25 165 12.9 20.9 0.00 0.00 0.00 66 1008.6
20260505002008 25 166 12.9 20.9 0.00 0.00 0.00 66 1008.8
20260505001512 25 170 9.7 20.9 0.00 0.00 0.00 65 1008.8
20260505001008 26 169 9.7 25.7 0.00 0.00 0.00 65 1008.9
20260505000506 26 196 12.9 25.7 0.00 0.00 0.00 64 1009.0
20260505000017 26 170 11.3 22.5 0.00 0.00 0.00 65 1008.9
20260504235508 26 192 11.3 20.9 0.00 0.00 0.00 64 1008.9
20260504235008 26 184 12.9 22.5 0.00 0.00 0.00 64 1008.9
20260504234521 26 180 12.9 27.4 0.00 0.00 0.00 64 1009.0
20260504234008 26 167 16.1 27.4 0.00 0.00 0.00 63 1009.0
20260504233507 26 199 16.1 25.7 0.00 0.00 0.00 62 1009.1
20260504233014 26 214 14.5 24.1 0.00 0.00 0.00 63 1009.1
20260504232012 26 165 11.3 19.3 0.00 0.00 0.00 63 1009.1
20260504231526 26 186 11.3 19.3 0.00 0.00 0.00 62 1009.1
20260504231008 26 194 8.0 25.7 0.00 0.00 0.00 63 1009.3
20260504230506 26 137 11.3 25.7 0.00 0.00 0.00 61 1009.2
20260504230018 26 192 11.3 25.7 0.00 0.00 0.00 62 1009.4
20260504225511 26 196 12.9 25.7 0.00 0.00 0.00 61 1009.3
20260504225008 27 197 14.5 24.1 0.00 0.00 0.00 60 1009.4
20260504224522 27 138 11.3 20.9 0.00 0.00 0.00 61 1009.4
20260504224010 26 200 12.9 27.4 0.00 0.00 0.00 60 1009.5
20260504223508 26 229 14.5 27.4 0.00 0.00 0.00 62 1009.5
20260504223022 26 195 14.5 27.4 0.00 0.00 0.00 60 1009.6
20260504222510 27 196 16.1 29.0 0.00 0.00 0.00 61 1009.6
20260504222009 27 205 16.1 29.0 0.00 0.00 0.00 59 1009.7
20260504221011 27 162 17.7 30.6 0.00 0.00 0.00 59 1009.8
20260504220014 27 199 14.5 25.7 0.00 0.00 0.00 60 1009.8
20260504215509 26 192 14.5 25.7 0.00 0.00 0.00 60 1009.8
20260504215008 26 177 12.9 27.4 0.00 0.00 0.00 60 1009.9
20260504214518 27 209 16.1 27.4 0.00 0.00 0.00 60 1010.0
20260504214009 26 200 11.3 29.0 0.00 0.00 0.00 61 1010.0
20260504213508 27 183 14.5 29.0 0.00 0.00 0.00 61 1010.1
20260504213024 27 138 16.1 27.4 0.00 0.00 0.00 59 1010.2
20260504212507 27 216 14.5 27.4 0.00 0.00 0.00 63 1010.2
20260504212009 26 163 12.9 27.4 0.00 0.00 0.00 61 1010.3
20260504211525 26 192 16.1 27.4 0.00 0.00 0.00 61 1010.4
20260504211011 26 159 16.1 27.4 0.00 0.00 0.00 61 1010.6
20260504210032 26 195 16.1 29.0 0.00 0.00 0.00 60 1010.7
20260504205007 26 166 16.1 22.5 0.00 0.00 0.00 61 1011.0
20260504204506 26 192 11.3 24.1 0.00 0.00 0.00 62 1011.1
20260504203506 26 149 14.5 24.1 0.00 0.00 0.00 62 1011.4
20260504203004 26 173 12.9 24.1 0.00 0.00 0.00 62 1011.5
20260504202504 26 159 12.9 24.1 0.00 0.00 0.00 63 1011.6
20260504202004 26 159 12.9 25.7 0.00 0.00 0.00 63 1011.8
20260504201508 26 194 11.3 25.7 0.00 0.00 0.00 63 1011.9
20260504201005 26 201 12.9 20.9 0.00 0.00 0.00 64 1012.0
20260504200504 26 191 9.7 24.1 0.00 0.00 0.00 63 1012.1
20260504200014 25 170 11.3 24.1 0.00 0.00 0.00 63 1012.3
20260504195506 25 163 11.3 25.7 0.00 0.00 0.00 61 1012.3
20260504195003 26 184 11.3 25.7 0.00 0.00 0.00 63 1012.2
20260504194514 26 165 11.3 24.1 0.00 0.00 0.00 63 1012.2
20260504194010 25 173 12.9 25.7 0.00 0.00 0.00 60 1012.5
20260504193507 26 202 11.3 29.0 0.00 0.00 0.00 62 1012.5
20260504193016 26 165 14.5 29.0 0.00 0.00 0.00 63 1012.5
20260504192504 26 169 12.9 27.4 0.00 0.00 0.00 62 1012.7
20260504192003 25 196 16.1 25.7 0.00 0.00 0.00 63 1012.7
20260504191521 25 142 12.9 25.7 0.00 0.00 0.00 61 1012.9
20260504191006 26 186 12.9 22.5 0.00 0.00 0.00 64 1012.9
20260504190504 25 192 12.9 25.7 0.00 0.00 0.00 64 1012.8
20260504190008 25 165 11.3 22.5 0.00 0.00 0.00 63 1013.0
20260504185507 25 197 14.5 30.6 0.00 0.00 0.00 64 1013.0
20260504184003 24 184 11.3 24.1 0.00 0.00 0.00 66 1013.1
20260504183507 25 141 14.5 24.1 0.00 0.00 0.00 66 1013.3
20260504183030 24 183 12.9 20.9 0.00 0.00 0.00 64 1013.4
20260504182514 24 159 9.7 37.0 0.00 0.00 0.00 65 1013.5
20260504182011 25 209 12.9 37.0 0.00 0.00 0.00 65 1013.7